User: anonymous   Login
Location: Newsoms
(36.6240°N, 77.1250°W)
Time: 06:32:58
(UTC-04:00)
Language:

BREEZE-M DEB (TANK) - Orbit

View from above orbital plane
View from above orbital plane
View from above satellite
View from above satellite

Ground track
Ground track

The orbit data is extracted from the following two-line orbital elements,

1 29649U 06056B   15116.28437105  .00004454  00000-0  12661-2 0  9996
2 29649 049.4952 084.4407 5382106 034.3672 041.2130 04.96402899148748
Epoch (UTC): 26 April 2015 06:49:29
Eccentricity: 0.5382106
inclination: 49.4952°
perigee height: 325 km
apogee height: 15950 km
right ascension of ascending node: 84.4407°
argument of perigee: 34.3672°
revolutions per day: 4.96402899
mean anomaly at epoch: 41.2130°
orbit number at epoch: 14874

The dashed part of the orbit path shows where the satellite is in the earth's shadow,  

DLR